Time,TemperatureF,DewpointF,PressureIn,WindDirection,WindDirectionDegrees,WindSpeedMPH,WindSpeedGustMPH,Humidity,HourlyPrecipIn,Conditions,Clouds,dailyrainin,SoftwareType,DateUTC
2013-03-21 00:00:00,41.3,23.1,29.77,SSW,200,0.0,0.0,48,0.00,CLR,,0.00,WeatherDisplay:10.37,2013-03-21 04:00:00,
2013-03-21 00:01:00,41.4,23.2,29.77,SSW,201,0.0,0.0,48,0.00,CLR,,0.00,WeatherDisplay:10.37,2013-03-21 04:01:00,
2013-03-21 00:06:00,41.5,22.7,29.76,SSW,201,0.0,0.0,47,0.00,CLR,,0.00,WeatherDisplay:10.37,2013-03-21 04:06:00,
2013-03-21 00:11:00,41.4,22.7,29.76,SSW,201,0.0,0.0,47,0.00,CLR,,0.00,WeatherDisplay:10.37,2013-03-21 04:11:00,
2013-03-21 00:16:00,41.3,22.6,29.76,SSW,201,0.0,0.0,47,0.00,CLR,,0.00,WeatherDisplay:10.37,2013-03-21 04:16:00,
2013-03-21 00:21:00,41.2,22.5,29.76,SSW,201,0.0,0.0,47,0.00,CLR,,0.00,WeatherDisplay:10.37,2013-03-21 04:21:00,
2013-03-21 00:26:00,41.2,22.5,29.76,SSW,201,0.0,0.0,47,0.00,CLR,,0.00,WeatherDisplay:10.37,2013-03-21 04:26:00,
2013-03-21 00:31:00,41.1,22.9,29.76,SSW,201,0.0,0.0,48,0.00,CLR,,0.00,WeatherDisplay:10.37,2013-03-21 04:31:00,
2013-03-21 00:36:00,41.2,23.0,29.75,SSW,201,0.0,0.0,48,0.00,CLR,,0.00,WeatherDisplay:10.37,2013-03-21 04:36:00,
2013-03-21 00:41:00,41.3,23.6,29.75,SSW,201,0.0,0.0,49,0.00,CLR,,0.00,WeatherDisplay:10.37,2013-03-21 04:41:00,
2013-03-21 00:46:00,41.4,24.1,29.76,NW,309,1.1,1.1,50,0.00,CLR,,0.00,WeatherDisplay:10.37,2013-03-21 04:46:00,
2013-03-21 00:51:00,41.5,27.4,29.76,NNW,343,4.6,4.6,57,0.00,CLR,,0.00,WeatherDisplay:10.37,2013-03-21 04:51:00,
2013-03-21 00:56:00,41.7,25.8,29.76,WNW,288,5.8,5.8,53,0.00,CLR,,0.00,WeatherDisplay:10.37,2013-03-21 04:56:00,
2013-03-21 01:01:00,41.9,25.5,29.76,SW,231,4.6,4.6,52,0.00,CLR,,0.00,WeatherDisplay:10.37,2013-03-21 05:01:00,
2013-03-21 01:06:00,42.0,25.6,29.76,West,278,1.1,1.1,52,0.00,CLR,,0.00,WeatherDisplay:10.37,2013-03-21 05:06:00,
2013-03-21 01:11:00,41.9,25.5,29.75,NNW,335,0.0,0.0,52,0.00,CLR,,0.00,WeatherDisplay:10.37,2013-03-21 05:11:00,
2013-03-21 01:16:00,41.9,25.1,29.75,NNW,335,0.0,0.0,51,0.00,CLR,,0.00,WeatherDisplay:10.37,2013-03-21 05:16:00,
2013-03-21 01:21:00,41.9,25.5,29.75,WSW,253,0.0,0.0,52,0.00,CLR,,0.00,WeatherDisplay:10.37,2013-03-21 05:21:00,
2013-03-21 01:26:00,41.8,25.4,29.75,WSW,253,0.0,0.0,52,0.00,CLR,,0.00,WeatherDisplay:10.37,2013-03-21 05:26:00,
2013-03-21 01:31:00,41.8,25.4,29.75,South,172,0.0,0.0,52,0.00,CLR,,0.00,WeatherDisplay:10.37,2013-03-21 05:31:00,
2013-03-21 01:36:00,41.8,25.4,29.75,WSW,253,0.0,0.2,52,0.00,CLR,,0.00,WeatherDisplay:10.37,2013-03-21 05:36:00,
2013-03-21 01:41:00,41.9,25.5,29.74,WNW,296,0.0,0.0,52,0.00,CLR,,0.00,WeatherDisplay:10.37,2013-03-21 05:41:00,
2013-03-21 01:46:00,42.2,25.3,29.74,NNE,27,0.0,0.0,51,0.00,CLR,,0.00,WeatherDisplay:10.37,2013-03-21 05:46:00,
2013-03-21 01:51:00,42.4,25.5,29.74,SW,236,0.0,0.0,51,0.00,CLR,,0.00,WeatherDisplay:10.37,2013-03-21 05:51:00,
2013-03-21 01:56:00,42.5,25.6,29.74,WSW,246,0.0,0.1,51,0.00,CLR,,0.00,WeatherDisplay:10.37,2013-03-21 05:56:00,
2013-03-21 02:01:00,42.6,25.7,29.75,West,259,0.0,0.0,51,0.00,CLR,,0.00,WeatherDisplay:10.37,2013-03-21 06:01:00,
2013-03-21 02:06:00,42.8,25.9,29.75,NE,53,1.1,1.1,51,0.00,CLR,,0.00,WeatherDisplay:10.37,2013-03-21 06:06:00,
2013-03-21 02:11:00,43.6,28.0,29.74,NNE,33,3.5,3.5,54,0.00,CLR,,0.00,WeatherDisplay:10.37,2013-03-21 06:11:00,
2013-03-21 02:16:00,44.1,28.5,29.74,NE,37,3.5,0.0,54,0.00,CLR,,0.00,WeatherDisplay:10.37,2013-03-21 06:16:00,
2013-03-21 02:21:00,44.2,28.6,29.74,NNW,342,3.5,3.5,54,0.00,CLR,,0.00,WeatherDisplay:10.37,2013-03-21 06:21:00,
2013-03-21 02:26:00,44.2,28.6,29.74,North,356,0.0,0.0,54,0.00,CLR,,0.00,WeatherDisplay:10.37,2013-03-21 06:26:00,
2013-03-21 02:31:00,44.3,29.1,29.74,NNW,336,2.3,2.3,55,0.00,CLR,,0.00,WeatherDisplay:10.37,2013-03-21 06:31:00,
2013-03-21 02:36:00,44.3,30.0,29.73,North,9,2.3,2.3,57,0.00,CLR,,0.00,WeatherDisplay:10.37,2013-03-21 06:36:00,
2013-03-21 02:41:00,44.4,30.5,29.73,ENE,77,3.5,3.5,58,0.00,CLR,,0.00,WeatherDisplay:10.37,2013-03-21 06:41:00,
2013-03-21 02:46:00,44.3,30.4,29.72,ENE,77,0.0,0.0,58,0.00,CLR,,0.00,WeatherDisplay:10.37,2013-03-21 06:46:00,
2013-03-21 02:51:00,44.2,30.8,29.72,ENE,77,0.0,0.0,59,0.00,CLR,,0.00,WeatherDisplay:10.37,2013-03-21 06:51:00,
2013-03-21 02:56:00,44.2,30.8,29.72,ENE,77,0.0,0.0,59,0.00,CLR,,0.00,WeatherDisplay:10.37,2013-03-21 06:56:00,
2013-03-21 03:01:00,44.0,31.0,29.71,ENE,77,0.0,0.0,60,0.00,CLR,,0.00,WeatherDisplay:10.37,2013-03-21 07:01:00,
2013-03-21 03:06:00,43.8,31.2,29.71,ENE,77,0.0,0.0,61,0.00,CLR,,0.00,WeatherDisplay:10.37,2013-03-21 07:06:00,
2013-03-21 03:11:00,43.3,31.1,29.72,NW,322,0.0,0.0,62,0.00,CLR,,0.00,WeatherDisplay:10.37,2013-03-21 07:11:00,
2013-03-21 03:16:00,43.0,30.9,29.72,WNW,283,1.1,0.0,62,0.00,CLR,,0.00,WeatherDisplay:10.37,2013-03-21 07:16:00,
2013-03-21 03:21:00,42.7,31.0,29.72,WNW,283,0.0,0.0,63,0.00,CLR,,0.00,WeatherDisplay:10.37,2013-03-21 07:21:00,
2013-03-21 03:26:00,42.4,31.1,29.72,WNW,283,0.0,0.0,64,0.00,CLR,,0.00,WeatherDisplay:10.37,2013-03-21 07:26:00,
2013-03-21 03:31:00,42.1,31.2,29.72,WNW,283,0.0,0.0,65,0.00,CLR,,0.00,WeatherDisplay:10.37,2013-03-21 07:31:00,
2013-03-21 03:36:00,41.6,30.7,29.72,WNW,283,0.0,0.0,65,0.00,CLR,,0.00,WeatherDisplay:10.37,2013-03-21 07:36:00,
2013-03-21 03:41:00,41.1,31.0,29.72,WNW,283,0.0,0.0,67,0.00,CLR,,0.00,WeatherDisplay:10.37,2013-03-21 07:41:00,
2013-03-21 03:46:00,40.6,30.9,29.71,WNW,283,0.0,0.0,68,0.00,CLR,,0.00,WeatherDisplay:10.37,2013-03-21 07:46:00,
2013-03-21 03:51:00,40.3,30.9,29.72,WNW,283,0.0,0.0,69,0.00,CLR,,0.00,WeatherDisplay:10.37,2013-03-21 07:51:00,
2013-03-21 03:56:00,40.0,31.0,29.72,SW,224,0.0,0.5,70,0.00,CLR,,0.00,WeatherDisplay:10.37,2013-03-21 07:56:00,
2013-03-21 04:02:00,40.0,31.4,29.72,NNW,330,0.0,0.0,71,0.00,CLR,,0.00,WeatherDisplay:10.37,2013-03-21 08:02:00,
2013-03-21 04:07:00,39.8,31.5,29.72,North,11,1.1,1.1,72,0.00,CLR,,0.00,WeatherDisplay:10.37,2013-03-21 08:07:00,
2013-03-21 04:12:00,39.8,31.5,29.72,North,11,2.3,2.3,72,0.00,CLR,,0.00,WeatherDisplay:10.37,2013-03-21 08:12:00,
2013-03-21 04:17:00,39.7,31.8,29.71,North,9,0.0,0.0,73,0.00,CLR,,0.00,WeatherDisplay:10.37,2013-03-21 08:17:00,
2013-03-21 04:22:00,39.6,32.0,29.72,North,9,1.1,1.1,74,0.00,CLR,,0.00,WeatherDisplay:10.37,2013-03-21 08:22:00,
2013-03-21 04:27:00,39.6,32.0,29.72,North,9,1.1,1.1,74,0.00,CLR,,0.00,WeatherDisplay:10.37,2013-03-21 08:27:00,
2013-03-21 04:32:00,39.5,32.2,29.72,NNE,13,0.0,0.0,75,0.00,CLR,,0.00,WeatherDisplay:10.37,2013-03-21 08:32:00,
2013-03-21 04:37:00,39.4,32.1,29.72,NNE,32,2.3,2.3,75,0.00,CLR,,0.00,WeatherDisplay:10.37,2013-03-21 08:37:00,
2013-03-21 04:42:00,39.3,31.7,29.72,North,350,1.1,1.1,74,0.00,CLR,,0.00,WeatherDisplay:10.37,2013-03-21 08:42:00,
2013-03-21 04:47:00,39.3,31.0,29.72,North,8,2.3,2.3,72,0.00,CLR,,0.00,WeatherDisplay:10.37,2013-03-21 08:47:00,
2013-03-21 04:52:00,39.5,30.9,29.72,WNW,295,1.1,1.1,71,0.00,CLR,,0.00,WeatherDisplay:10.37,2013-03-21 08:52:00,
2013-03-21 04:57:00,39.4,30.4,29.72,NNE,27,1.1,1.1,70,0.00,CLR,,0.00,WeatherDisplay:10.37,2013-03-21 08:57:00,
2013-03-21 05:02:00,39.3,30.3,29.73,North,353,2.3,2.3,70,0.00,CLR,,0.00,WeatherDisplay:10.37,2013-03-21 09:02:00,
2013-03-21 05:07:00,39.1,30.1,29.72,NNW,345,1.1,1.1,70,0.00,CLR,,0.00,WeatherDisplay:10.37,2013-03-21 09:07:00,
2013-03-21 05:12:00,39.0,30.0,29.73,North,8,2.3,2.3,70,0.00,CLR,,0.00,WeatherDisplay:10.37,2013-03-21 09:12:00,
2013-03-21 05:17:00,38.9,29.9,29.73,NNE,15,1.1,1.1,70,0.00,CLR,,0.00,WeatherDisplay:10.37,2013-03-21 09:17:00,
2013-03-21 05:22:00,38.8,29.5,29.73,NNE,29,1.1,1.1,69,0.00,CLR,,0.00,WeatherDisplay:10.37,2013-03-21 09:22:00,
2013-03-21 05:27:00,38.7,29.4,29.73,NW,309,0.0,0.0,69,0.00,CLR,,0.00,WeatherDisplay:10.37,2013-03-21 09:27:00,
2013-03-21 05:32:00,38.4,29.1,29.73,NNW,339,2.3,2.3,69,0.00,CLR,,0.00,WeatherDisplay:10.37,2013-03-21 09:32:00,
2013-03-21 05:37:00,38.2,28.9,29.73,North,357,0.0,0.0,69,0.00,CLR,,0.00,WeatherDisplay:10.37,2013-03-21 09:37:00,
2013-03-21 05:42:00,38.1,28.8,29.73,NNW,347,0.0,0.0,69,0.00,CLR,,0.00,WeatherDisplay:10.37,2013-03-21 09:42:00,
2013-03-21 05:47:00,37.9,28.6,29.73,North,1,0.0,0.0,69,0.00,CLR,,0.00,WeatherDisplay:10.37,2013-03-21 09:47:00,
2013-03-21 05:52:00,37.7,28.8,29.74,WNW,298,0.0,0.0,70,0.00,CLR,,0.00,WeatherDisplay:10.37,2013-03-21 09:52:00,
2013-03-21 05:57:00,37.4,28.9,29.74,WNW,283,1.0,0.0,71,0.00,CLR,,0.00,WeatherDisplay:10.37,2013-03-21 09:57:00,
2013-03-21 06:02:00,37.2,28.7,29.74,West,277,0.0,0.0,71,0.00,CLR,,0.00,WeatherDisplay:10.37,2013-03-21 10:02:00,
2013-03-21 06:07:00,36.9,28.4,29.74,North,11,0.0,0.0,71,0.00,CLR,,0.00,WeatherDisplay:10.37,2013-03-21 10:07:00,
2013-03-21 06:12:00,36.9,28.4,29.75,WNW,301,3.0,3.0,71,0.00,CLR,,0.00,WeatherDisplay:10.37,2013-03-21 10:12:00,
2013-03-21 06:17:00,37.0,28.1,29.75,WSW,249,1.1,1.1,70,0.00,CLR,,0.00,WeatherDisplay:10.37,2013-03-21 10:17:00,
2013-03-21 06:22:00,37.0,28.1,29.75,North,359,2.3,2.3,70,0.00,CLR,,0.00,WeatherDisplay:10.37,2013-03-21 10:22:00,
2013-03-21 06:27:00,37.0,28.1,29.75,NNW,330,0.0,0.0,70,0.00,CLR,,0.00,WeatherDisplay:10.37,2013-03-21 10:27:00,
2013-03-21 06:32:00,36.9,27.7,29.75,NW,323,0.0,0.0,69,0.00,CLR,,0.00,WeatherDisplay:10.37,2013-03-21 10:32:00,
2013-03-21 06:37:00,36.9,27.3,29.75,North,11,2.3,2.3,68,0.00,CLR,,0.00,WeatherDisplay:10.37,2013-03-21 10:37:00,
2013-03-21 06:42:00,37.0,27.4,29.75,North,6,2.3,2.3,68,0.00,CLR,,0.00,WeatherDisplay:10.37,2013-03-21 10:42:00,
2013-03-21 06:47:00,36.9,27.3,29.75,WNW,283,2.3,0.0,68,0.00,CLR,,0.00,WeatherDisplay:10.37,2013-03-21 10:47:00,
2013-03-21 06:52:00,36.8,27.2,29.75,NW,326,2.3,2.3,68,0.00,CLR,,0.00,WeatherDisplay:10.37,2013-03-21 10:52:00,
2013-03-21 06:57:00,36.8,27.2,29.75,NE,37,3.5,3.5,68,0.00,CLR,,0.00,WeatherDisplay:10.37,2013-03-21 10:57:00,
2013-03-21 07:02:00,36.7,27.1,29.75,NNW,340,2.3,2.3,68,0.00,CLR,,0.00,WeatherDisplay:10.37,2013-03-21 11:02:00,
2013-03-21 07:07:00,36.5,26.9,29.75,NE,34,1.1,1.1,68,0.00,CLR,,0.00,WeatherDisplay:10.37,2013-03-21 11:07:00,
2013-03-21 07:12:00,36.4,26.8,29.75,West,271,3.5,3.5,68,0.00,CLR,,0.00,WeatherDisplay:10.37,2013-03-21 11:12:00,
2013-03-21 07:17:00,36.2,26.6,29.75,North,8,3.0,3.0,68,0.00,CLR,,0.00,WeatherDisplay:10.37,2013-03-21 11:17:00,
2013-03-21 07:22:00,36.1,26.6,29.75,NNE,20,3.5,3.5,68,0.00,CLR,,0.00,WeatherDisplay:10.37,2013-03-21 11:22:00,
2013-03-21 07:27:00,35.9,26.4,29.75,NNE,19,2.3,2.3,68,0.00,CLR,,0.00,WeatherDisplay:10.37,2013-03-21 11:27:00,
2013-03-21 07:32:00,35.9,26.4,29.75,WNW,299,1.1,0.0,68,0.00,CLR,,0.00,WeatherDisplay:10.37,2013-03-21 11:32:00,
2013-03-21 07:37:00,35.7,26.5,29.75,North,6,3.5,3.5,69,0.00,CLR,,0.00,WeatherDisplay:10.37,2013-03-21 11:37:00,
2013-03-21 07:42:00,35.8,26.3,29.76,NW,306,1.1,1.1,68,0.00,CLR,,0.00,WeatherDisplay:10.37,2013-03-21 11:42:00,
2013-03-21 07:47:00,35.9,26.0,29.76,WNW,301,3.5,3.5,67,0.00,CLR,,0.00,WeatherDisplay:10.37,2013-03-21 11:47:00,
2013-03-21 07:52:00,36.1,25.8,29.76,North,357,1.1,0.0,66,0.00,CLR,,0.00,WeatherDisplay:10.37,2013-03-21 11:52:00,
2013-03-21 07:57:00,36.3,25.7,29.76,NNE,26,2.3,2.3,65,0.00,CLR,,0.00,WeatherDisplay:10.37,2013-03-21 11:57:00,
2013-03-21 08:02:00,36.4,26.1,29.77,North,358,1.1,1.1,66,0.00,CLR,,0.00,WeatherDisplay:10.37,2013-03-21 12:02:00,
2013-03-21 08:07:00,36.5,25.8,29.76,WSW,245,2.3,2.3,65,0.00,CLR,,0.00,WeatherDisplay:10.37,2013-03-21 12:07:00,
2013-03-21 08:12:00,36.7,25.3,29.76,NW,326,3.5,3.5,63,0.00,CLR,,0.00,WeatherDisplay:10.37,2013-03-21 12:12:00,
2013-03-21 08:17:00,36.8,25.0,29.77,NNW,332,5.8,5.8,62,0.00,CLR,,0.00,WeatherDisplay:10.37,2013-03-21 12:17:00,
2013-03-21 08:22:00,36.9,24.3,29.77,NNE,25,8.1,8.1,60,0.00,CLR,,0.00,WeatherDisplay:10.37,2013-03-21 12:22:00,
2013-03-21 08:27:00,36.9,23.9,29.77,North,4,6.9,6.9,59,0.00,CLR,,0.00,WeatherDisplay:10.37,2013-03-21 12:27:00,
2013-03-21 08:32:00,37.0,24.0,29.77,NNE,31,3.5,3.5,59,0.00,CLR,,0.00,WeatherDisplay:10.37,2013-03-21 12:32:00,
2013-03-21 08:37:00,37.0,23.6,29.77,WNW,294,5.8,5.8,58,0.00,CLR,,0.00,WeatherDisplay:10.37,2013-03-21 12:37:00,
2013-03-21 08:42:00,37.1,23.3,29.76,North,8,3.5,3.5,57,0.00,CLR,,0.00,WeatherDisplay:10.37,2013-03-21 12:42:00,
2013-03-21 08:47:00,37.2,23.4,29.77,NNE,12,4.6,4.6,57,0.00,CLR,,0.00,WeatherDisplay:10.37,2013-03-21 12:47:00,
2013-03-21 08:52:00,37.2,22.9,29.78,ENE,61,5.0,5.0,56,0.00,CLR,,0.00,WeatherDisplay:10.37,2013-03-21 12:52:00,
2013-03-21 08:57:00,37.5,22.8,29.78,North,9,3.5,3.5,55,0.00,CLR,,0.00,WeatherDisplay:10.37,2013-03-21 12:57:00,
2013-03-21 09:02:00,37.9,23.2,29.78,WSW,242,3.5,3.5,55,0.00,CLR,,0.00,WeatherDisplay:10.37,2013-03-21 13:02:00,
2013-03-21 09:07:00,38.0,22.8,29.78,NNW,333,3.5,3.5,54,0.00,CLR,,0.00,WeatherDisplay:10.37,2013-03-21 13:07:00,
2013-03-21 09:12:00,38.1,22.5,29.78,NNW,338,6.9,6.9,53,0.00,CLR,,0.00,WeatherDisplay:10.37,2013-03-21 13:12:00,
2013-03-21 09:17:00,38.3,22.6,29.78,NNE,26,5.8,5.8,53,0.00,CLR,,0.00,WeatherDisplay:10.37,2013-03-21 13:17:00,
2013-03-21 09:22:00,38.8,23.1,29.78,NNW,345,5.8,5.8,53,0.00,CLR,,0.00,WeatherDisplay:10.37,2013-03-21 13:22:00,
2013-03-21 09:27:00,39.1,22.9,29.78,ENE,64,11.5,11.5,52,0.00,CLR,,0.00,WeatherDisplay:10.37,2013-03-21 13:27:00,
2013-03-21 09:32:00,38.8,23.1,29.78,WSW,242,11.0,11.0,53,0.00,CLR,,0.00,WeatherDisplay:10.37,2013-03-21 13:32:00,
2013-03-21 09:37:00,38.3,22.2,29.79,West,266,11.5,11.5,52,0.00,CLR,,0.00,WeatherDisplay:10.37,2013-03-21 13:37:00,
2013-03-21 09:42:00,38.0,21.9,29.79,NNE,20,2.3,2.3,52,0.00,CLR,,0.00,WeatherDisplay:10.37,2013-03-21 13:42:00,
2013-03-21 09:47:00,38.0,21.9,29.79,SW,233,6.9,6.9,52,0.00,CLR,,0.00,WeatherDisplay:10.37,2013-03-21 13:47:00,
2013-03-21 09:52:00,38.1,22.5,29.79,West,263,1.1,1.1,53,0.00,CLR,,0.00,WeatherDisplay:10.37,2013-03-21 13:52:00,
2013-03-21 09:57:00,38.6,22.0,29.79,North,360,5.8,5.8,51,0.00,CLR,,0.00,WeatherDisplay:10.37,2013-03-21 13:57:00,
2013-03-21 10:02:00,39.1,22.0,29.79,West,278,3.5,3.5,50,0.00,CLR,,0.00,WeatherDisplay:10.37,2013-03-21 14:02:00,
2013-03-21 10:07:00,39.6,22.0,29.78,West,281,5.8,5.8,49,0.00,CLR,,0.00,WeatherDisplay:10.37,2013-03-21 14:07:00,
2013-03-21 10:13:00,39.5,21.4,29.78,NNW,343,4.6,4.6,48,0.00,CLR,,0.00,WeatherDisplay:10.37,2013-03-21 14:13:00,
2013-03-21 10:17:00,39.8,21.2,29.78,NNW,340,9.2,9.2,47,0.00,CLR,,0.00,WeatherDisplay:10.37,2013-03-21 14:17:00,
2013-03-21 10:23:00,40.1,20.4,29.79,NE,50,4.6,4.6,45,0.00,CLR,,0.00,WeatherDisplay:10.37,2013-03-21 14:23:00,
2013-03-21 10:28:00,40.0,20.3,29.79,NE,40,6.9,6.9,45,0.00,CLR,,0.00,WeatherDisplay:10.37,2013-03-21 14:28:00,
2013-03-21 10:33:00,40.1,19.9,29.78,North,11,8.1,8.1,44,0.00,CLR,,0.00,WeatherDisplay:10.37,2013-03-21 14:33:00,
2013-03-21 10:38:00,40.3,20.1,29.79,NE,43,6.9,6.9,44,0.00,CLR,,0.00,WeatherDisplay:10.37,2013-03-21 14:38:00,
2013-03-21 10:43:00,40.7,19.9,29.79,NW,311,6.9,6.9,43,0.00,CLR,,0.00,WeatherDisplay:10.37,2013-03-21 14:43:00,
2013-03-21 10:48:00,40.6,19.8,29.79,North,358,4.6,4.6,43,0.00,CLR,,0.00,WeatherDisplay:10.37,2013-03-21 14:48:00,
2013-03-21 10:53:00,41.2,20.4,29.79,WSW,237,8.1,8.1,43,0.00,CLR,,0.00,WeatherDisplay:10.37,2013-03-21 14:53:00,
2013-03-21 10:58:00,41.4,20.0,29.79,NE,37,6.9,6.9,42,0.00,CLR,,0.00,WeatherDisplay:10.37,2013-03-21 14:58:00,
2013-03-21 11:03:00,41.2,19.2,29.79,NW,307,8.1,8.1,41,0.00,CLR,,0.00,WeatherDisplay:10.37,2013-03-21 15:03:00,
2013-03-21 11:08:00,41.1,20.3,29.79,SW,232,6.9,6.9,43,0.00,CLR,,0.00,WeatherDisplay:10.37,2013-03-21 15:08:00,
2013-03-21 11:13:00,41.6,19.6,29.79,SW,226,11.5,11.5,41,0.00,CLR,,0.00,WeatherDisplay:10.37,2013-03-21 15:13:00,
2013-03-21 11:18:00,41.2,18.7,29.79,NE,38,3.5,3.5,40,0.00,CLR,,0.00,WeatherDisplay:10.37,2013-03-21 15:18:00,
2013-03-21 11:23:00,41.4,18.9,29.79,NE,34,6.9,6.9,40,0.00,CLR,,0.00,WeatherDisplay:10.37,2013-03-21 15:23:00,
2013-03-21 11:28:00,41.7,19.1,29.79,WNW,285,8.1,8.1,40,0.00,CLR,,0.00,WeatherDisplay:10.37,2013-03-21 15:28:00,
2013-03-21 11:33:00,42.3,19.1,29.79,ENE,74,6.9,6.9,39,0.00,CLR,,0.00,WeatherDisplay:10.37,2013-03-21 15:33:00,
2013-03-21 11:38:00,42.6,19.3,29.79,NE,40,6.9,6.9,39,0.00,CLR,,0.00,WeatherDisplay:10.37,2013-03-21 15:38:00,
2013-03-21 11:43:00,41.7,17.9,29.79,NNE,22,4.6,4.6,38,0.00,CLR,,0.00,WeatherDisplay:10.37,2013-03-21 15:43:00,
2013-03-21 11:48:00,41.3,18.2,29.78,North,4,3.5,3.5,39,0.00,CLR,,0.00,WeatherDisplay:10.37,2013-03-21 15:48:00,
2013-03-21 11:53:00,42.5,19.3,29.78,SW,223,3.5,3.5,39,0.00,CLR,,0.00,WeatherDisplay:10.37,2013-03-21 15:53:00,
2013-03-21 11:58:00,42.2,18.4,29.78,WNW,297,6.9,6.9,38,0.00,CLR,,0.00,WeatherDisplay:10.37,2013-03-21 15:58:00,
2013-03-21 12:03:00,42.2,19.6,29.78,NE,53,0.0,0.0,40,0.00,CLR,,0.00,WeatherDisplay:10.37,2013-03-21 16:03:00,
2013-03-21 12:08:00,42.5,18.0,29.78,West,271,9.2,9.2,37,0.00,CLR,,0.00,WeatherDisplay:10.37,2013-03-21 16:08:00,
2013-03-21 12:13:00,42.6,18.1,29.77,West,274,5.0,5.0,37,0.00,CLR,,0.00,WeatherDisplay:10.37,2013-03-21 16:13:00,
2013-03-21 12:18:00,43.0,18.5,29.77,NNE,12,2.3,2.3,37,0.00,CLR,,0.00,WeatherDisplay:10.37,2013-03-21 16:18:00,
2013-03-21 12:23:00,43.3,18.1,29.77,SW,224,5.8,5.8,36,0.00,CLR,,0.00,WeatherDisplay:10.37,2013-03-21 16:23:00,
2013-03-21 12:28:00,43.9,19.9,29.77,NNE,23,6.9,6.9,38,0.00,CLR,,0.00,WeatherDisplay:10.37,2013-03-21 16:28:00,
2013-03-21 12:33:00,43.3,17.4,29.77,NNE,20,4.6,4.6,35,0.00,CLR,,0.00,WeatherDisplay:10.37,2013-03-21 16:33:00,
2013-03-21 12:38:00,42.4,17.9,29.78,WNW,290,5.8,5.8,37,0.00,CLR,,0.00,WeatherDisplay:10.37,2013-03-21 16:38:00,
2013-03-21 12:43:00,42.4,17.9,29.77,NNW,340,3.5,3.5,37,0.00,CLR,,0.00,WeatherDisplay:10.37,2013-03-21 16:43:00,
2013-03-21 12:48:00,42.7,18.2,29.77,WNW,298,6.0,6.0,37,0.00,CLR,,0.00,WeatherDisplay:10.37,2013-03-21 16:48:00,
2013-03-21 12:53:00,43.5,18.9,29.77,North,353,3.5,3.5,37,0.00,CLR,,0.00,WeatherDisplay:10.37,2013-03-21 16:53:00,
2013-03-21 12:58:00,43.5,16.3,29.77,NW,321,4.6,4.6,33,0.00,CLR,,0.00,WeatherDisplay:10.37,2013-03-21 16:58:00,
2013-03-21 13:03:00,42.8,17.0,29.77,NNE,12,4.0,4.0,35,0.00,CLR,,0.00,WeatherDisplay:10.37,2013-03-21 17:03:00,
2013-03-21 13:08:00,43.2,16.7,29.77,WNW,300,6.9,6.9,34,0.00,CLR,,0.00,WeatherDisplay:10.37,2013-03-21 17:08:00,
2013-03-21 13:13:00,44.2,16.9,29.77,NE,54,4.6,4.6,33,0.00,CLR,,0.00,WeatherDisplay:10.37,2013-03-21 17:13:00,
2013-03-21 13:18:00,43.9,15.9,29.77,NNE,29,9.2,9.2,32,0.00,CLR,,0.00,WeatherDisplay:10.37,2013-03-21 17:18:00,
2013-03-21 13:23:00,44.1,16.1,29.77,West,260,4.6,4.6,32,0.00,CLR,,0.00,WeatherDisplay:10.37,2013-03-21 17:23:00,
2013-03-21 13:28:00,44.4,15.6,29.77,West,273,8.1,8.1,31,0.00,CLR,,0.00,WeatherDisplay:10.37,2013-03-21 17:28:00,
2013-03-21 13:33:00,44.2,16.2,29.77,WSW,239,5.0,5.0,32,0.00,CLR,,0.00,WeatherDisplay:10.37,2013-03-21 17:33:00,
2013-03-21 13:38:00,44.8,18.1,29.77,ESE,117,11.5,11.5,34,0.00,CLR,,0.00,WeatherDisplay:10.37,2013-03-21 17:38:00,
2013-03-21 13:43:00,44.0,15.3,29.77,ESE,105,5.8,5.8,31,0.00,CLR,,0.00,WeatherDisplay:10.37,2013-03-21 17:43:00,
2013-03-21 13:48:00,44.9,18.9,29.77,WNW,289,3.5,3.5,35,0.00,CLR,,0.00,WeatherDisplay:10.37,2013-03-21 17:48:00,
2013-03-21 13:53:00,44.5,15.7,29.77,NW,312,6.9,6.9,31,0.00,CLR,,0.00,WeatherDisplay:10.37,2013-03-21 17:53:00,
2013-03-21 13:58:00,43.0,15.8,29.77,North,354,4.6,4.6,33,0.00,CLR,,0.00,WeatherDisplay:10.37,2013-03-21 17:58:00,
2013-03-21 14:03:00,43.2,17.4,29.77,WNW,301,4.6,4.6,35,0.00,CLR,,0.00,WeatherDisplay:10.37,2013-03-21 18:03:00,
2013-03-21 14:08:00,43.3,16.1,29.77,NNE,20,13.0,13.0,33,0.00,CLR,,0.00,WeatherDisplay:10.37,2013-03-21 18:08:00,
2013-03-21 14:13:00,43.2,15.3,29.76,NNW,345,8.1,8.1,32,0.00,CLR,,0.00,WeatherDisplay:10.37,2013-03-21 18:13:00,
2013-03-21 14:18:00,42.8,14.2,29.76,WSW,253,4.0,4.0,31,0.00,CLR,,0.00,WeatherDisplay:10.37,2013-03-21 18:18:00,
2013-03-21 14:23:00,42.7,15.6,29.76,WNW,300,5.8,5.8,33,0.00,CLR,,0.00,WeatherDisplay:10.37,2013-03-21 18:23:00,
2013-03-21 14:28:00,43.1,17.3,29.76,SW,235,3.5,3.5,35,0.00,CLR,,0.00,WeatherDisplay:10.37,2013-03-21 18:28:00,
2013-03-21 14:33:00,43.1,15.9,29.76,SW,229,9.2,9.2,33,0.00,CLR,,0.00,WeatherDisplay:10.37,2013-03-21 18:33:00,
2013-03-21 14:38:00,43.0,15.8,29.76,NNE,16,8.1,8.1,33,0.00,CLR,,0.00,WeatherDisplay:10.37,2013-03-21 18:38:00,
2013-03-21 14:43:00,42.6,16.2,29.76,WSW,237,8.1,8.1,34,0.00,CLR,,0.00,WeatherDisplay:10.37,2013-03-21 18:43:00,
2013-03-21 14:48:00,43.1,17.3,29.76,WNW,297,3.5,3.5,35,0.00,CLR,,0.00,WeatherDisplay:10.37,2013-03-21 18:48:00,
2013-03-21 14:53:00,43.1,16.6,29.77,NNE,16,5.8,5.8,34,0.00,CLR,,0.00,WeatherDisplay:10.37,2013-03-21 18:53:00,
2013-03-21 14:58:00,43.4,16.2,29.77,West,267,8.1,8.1,33,0.00,CLR,,0.00,WeatherDisplay:10.37,2013-03-21 18:58:00,
2013-03-21 15:03:00,43.5,16.9,29.76,NNE,33,4.6,4.6,34,0.00,CLR,,0.00,WeatherDisplay:10.37,2013-03-21 19:03:00,
2013-03-21 15:08:00,43.7,16.4,29.76,NNW,335,10.4,10.4,33,0.00,CLR,,0.00,WeatherDisplay:10.37,2013-03-21 19:08:00,
2013-03-21 15:13:00,43.3,16.1,29.76,East,89,6.9,6.9,33,0.00,CLR,,0.00,WeatherDisplay:10.37,2013-03-21 19:13:00,
2013-03-21 15:18:00,42.7,15.6,29.76,West,260,4.6,4.6,33,0.00,CLR,,0.00,WeatherDisplay:10.37,2013-03-21 19:18:00,
2013-03-21 15:23:00,42.8,16.3,29.76,WSW,253,6.0,6.0,34,0.00,CLR,,0.00,WeatherDisplay:10.37,2013-03-21 19:23:00,
2013-03-21 15:28:00,43.3,15.4,29.76,WNW,284,10.4,10.4,32,0.00,CLR,,0.00,WeatherDisplay:10.37,2013-03-21 19:28:00,
2013-03-21 15:33:00,43.1,15.2,29.77,WNW,294,9.2,9.2,32,0.00,CLR,,0.00,WeatherDisplay:10.37,2013-03-21 19:33:00,
2013-03-21 15:38:00,42.6,15.5,29.77,NNE,17,6.9,6.9,33,0.00,CLR,,0.00,WeatherDisplay:10.37,2013-03-21 19:38:00,
2013-03-21 15:43:00,42.3,15.2,29.77,NNE,33,4.0,4.0,33,0.00,CLR,,0.00,WeatherDisplay:10.37,2013-03-21 19:43:00,
2013-03-21 15:48:00,42.6,14.8,29.77,WNW,285,3.5,3.5,32,0.00,CLR,,0.00,WeatherDisplay:10.37,2013-03-21 19:48:00,
2013-03-21 15:53:00,42.8,15.6,29.77,WNW,295,7.0,7.0,33,0.00,CLR,,0.00,WeatherDisplay:10.37,2013-03-21 19:53:00,
2013-03-21 15:58:00,42.4,13.9,29.78,SW,217,6.9,6.9,31,0.00,CLR,,0.00,WeatherDisplay:10.37,2013-03-21 19:58:00,
2013-03-21 16:03:00,42.1,13.6,29.78,North,5,3.5,3.5,31,0.00,CLR,,0.00,WeatherDisplay:10.37,2013-03-21 20:03:00,
2013-03-21 16:08:00,42.0,13.5,29.78,NNE,19,3.0,3.0,31,0.00,CLR,,0.00,WeatherDisplay:10.37,2013-03-21 20:08:00,
2013-03-21 16:13:00,42.4,13.9,29.78,WNW,295,10.4,10.4,31,0.00,CLR,,0.00,WeatherDisplay:10.37,2013-03-21 20:13:00,
2013-03-21 16:18:00,42.9,14.3,29.78,NW,310,10.4,10.4,31,0.00,CLR,,0.00,WeatherDisplay:10.37,2013-03-21 20:18:00,
2013-03-21 16:23:00,42.4,13.1,29.79,WSW,257,3.5,3.5,30,0.00,CLR,,0.00,WeatherDisplay:10.37,2013-03-21 20:23:00,
2013-03-21 16:28:00,42.1,13.6,29.79,WSW,238,6.9,6.9,31,0.00,CLR,,0.00,WeatherDisplay:10.37,2013-03-21 20:28:00,
2013-03-21 16:33:00,41.8,13.3,29.79,NNW,340,3.5,3.5,31,0.00,CLR,,0.00,WeatherDisplay:10.37,2013-03-21 20:33:00,
2013-03-21 16:38:00,42.0,14.2,29.79,West,260,10.4,10.4,32,0.00,CLR,,0.00,WeatherDisplay:10.37,2013-03-21 20:38:00,
2013-03-21 16:43:00,42.4,14.6,29.79,WNW,302,6.9,6.9,32,0.00,CLR,,0.00,WeatherDisplay:10.37,2013-03-21 20:43:00,
2013-03-21 16:48:00,43.0,15.1,29.79,NE,51,11.5,11.5,32,0.00,CLR,,0.00,WeatherDisplay:10.37,2013-03-21 20:48:00,
2013-03-21 16:53:00,43.4,15.5,29.79,NNE,27,9.0,9.0,32,0.00,CLR,,0.00,WeatherDisplay:10.37,2013-03-21 20:53:00,
2013-03-21 16:58:00,42.8,14.2,29.80,NNE,19,4.6,4.6,31,0.00,CLR,,0.00,WeatherDisplay:10.37,2013-03-21 20:58:00,
2013-03-21 17:03:00,42.1,15.0,29.80,NNE,25,6.9,6.9,33,0.00,CLR,,0.00,WeatherDisplay:10.37,2013-03-21 21:03:00,
2013-03-21 17:08:00,41.4,14.4,29.80,North,11,5.8,5.8,33,0.00,CLR,,0.00,WeatherDisplay:10.37,2013-03-21 21:08:00,
2013-03-21 17:13:00,41.6,14.6,29.81,West,271,10.0,10.0,33,0.00,CLR,,0.00,WeatherDisplay:10.37,2013-03-21 21:13:00,
2013-03-21 17:18:00,41.8,14.8,29.81,WNW,288,8.1,8.1,33,0.00,CLR,,0.00,WeatherDisplay:10.37,2013-03-21 21:18:00,
2013-03-21 17:23:00,41.2,14.2,29.81,NE,50,8.1,8.1,33,0.00,CLR,,0.00,WeatherDisplay:10.37,2013-03-21 21:23:00,
2013-03-21 17:28:00,40.9,14.6,29.81,West,274,3.5,3.5,34,0.00,CLR,,0.00,WeatherDisplay:10.37,2013-03-21 21:28:00,
2013-03-21 17:33:00,41.5,15.2,29.81,NW,309,10.4,10.4,34,0.00,CLR,,0.00,WeatherDisplay:10.37,2013-03-21 21:33:00,
2013-03-21 17:38:00,41.6,15.3,29.82,NE,36,11.5,11.5,34,0.00,CLR,,0.00,WeatherDisplay:10.37,2013-03-21 21:38:00,
2013-03-21 17:44:00,41.4,15.1,29.82,WNW,302,5.8,5.8,34,0.00,CLR,,0.00,WeatherDisplay:10.37,2013-03-21 21:44:00,
2013-03-21 17:49:00,41.3,15.0,29.82,West,267,6.9,6.9,34,0.00,CLR,,0.00,WeatherDisplay:10.37,2013-03-21 21:49:00,
2013-03-21 17:54:00,41.4,14.4,29.82,West,271,5.8,5.8,33,0.00,CLR,,0.00,WeatherDisplay:10.37,2013-03-21 21:54:00,
2013-03-21 17:59:00,41.4,15.1,29.82,NNE,25,10.4,10.4,34,0.00,CLR,,0.00,WeatherDisplay:10.37,2013-03-21 21:59:00,
2013-03-21 18:04:00,41.1,14.8,29.83,NNE,26,8.1,8.1,34,0.00,CLR,,0.00,WeatherDisplay:10.37,2013-03-21 22:04:00,
2013-03-21 18:09:00,41.0,14.7,29.83,NNE,16,3.5,3.5,34,0.00,CLR,,0.00,WeatherDisplay:10.37,2013-03-21 22:09:00,
2013-03-21 18:14:00,41.2,14.9,29.83,SSW,210,1.1,1.1,34,0.00,CLR,,0.00,WeatherDisplay:10.37,2013-03-21 22:14:00,
2013-03-21 18:19:00,41.1,14.1,29.83,NE,56,8.1,8.1,33,0.00,CLR,,0.00,WeatherDisplay:10.37,2013-03-21 22:19:00,
2013-03-21 18:24:00,40.8,14.6,29.83,NW,315,8.1,8.1,34,0.00,CLR,,0.00,WeatherDisplay:10.37,2013-03-21 22:24:00,
2013-03-21 18:29:00,40.8,13.9,29.84,North,8,3.5,3.5,33,0.00,CLR,,0.00,WeatherDisplay:10.37,2013-03-21 22:29:00,
2013-03-21 18:34:00,40.6,13.0,29.84,NW,318,8.1,8.1,32,0.00,CLR,,0.00,WeatherDisplay:10.37,2013-03-21 22:34:00,
2013-03-21 18:39:00,40.2,13.3,29.84,NE,47,9.2,9.2,33,0.00,CLR,,0.00,WeatherDisplay:10.37,2013-03-21 22:39:00,
2013-03-21 18:44:00,39.9,13.1,29.84,NW,318,3.5,3.5,33,0.00,CLR,,0.00,WeatherDisplay:10.37,2013-03-21 22:44:00,
2013-03-21 18:49:00,39.4,12.6,29.85,WNW,289,6.9,6.9,33,0.00,CLR,,0.00,WeatherDisplay:10.37,2013-03-21 22:49:00,
2013-03-21 18:54:00,39.0,12.3,29.85,NE,34,3.5,3.5,33,0.00,CLR,,0.00,WeatherDisplay:10.37,2013-03-21 22:54:00,
2013-03-21 18:59:00,38.6,12.6,29.85,NNW,345,4.6,4.6,34,0.00,CLR,,0.00,WeatherDisplay:10.37,2013-03-21 22:59:00,
2013-03-21 19:04:00,38.3,12.3,29.86,SW,235,8.1,8.1,34,0.00,CLR,,0.00,WeatherDisplay:10.37,2013-03-21 23:04:00,
2013-03-21 19:09:00,38.0,12.1,29.85,WNW,293,4.6,4.6,34,0.00,CLR,,0.00,WeatherDisplay:10.37,2013-03-21 23:09:00,
2013-03-21 19:14:00,37.9,12.0,29.86,NW,322,4.6,4.6,34,0.00,CLR,,0.00,WeatherDisplay:10.37,2013-03-21 23:14:00,
2013-03-21 19:19:00,37.6,11.7,29.86,NW,307,3.5,3.5,34,0.00,CLR,,0.00,WeatherDisplay:10.37,2013-03-21 23:19:00,
2013-03-21 19:24:00,37.5,11.6,29.87,NNW,335,6.9,6.9,34,0.00,CLR,,0.00,WeatherDisplay:10.37,2013-03-21 23:24:00,
2013-03-21 19:29:00,37.4,11.5,29.87,SE,129,3.5,3.5,34,0.00,CLR,,0.00,WeatherDisplay:10.37,2013-03-21 23:29:00,
2013-03-21 19:34:00,37.2,12.0,29.88,NE,51,2.3,2.3,35,0.00,CLR,,0.00,WeatherDisplay:10.37,2013-03-21 23:34:00,
2013-03-21 19:39:00,37.0,11.8,29.88,NNE,25,10.4,10.4,35,0.00,CLR,,0.00,WeatherDisplay:10.37,2013-03-21 23:39:00,
2013-03-21 19:44:00,36.9,11.1,29.88,NNW,342,8.1,8.1,34,0.00,CLR,,0.00,WeatherDisplay:10.37,2013-03-21 23:44:00,
2013-03-21 19:49:00,36.7,10.9,29.88,North,352,7.0,7.0,34,0.00,CLR,,0.00,WeatherDisplay:10.37,2013-03-21 23:49:00,
2013-03-21 19:54:00,36.6,11.5,29.88,WNW,296,5.8,5.8,35,0.00,CLR,,0.00,WeatherDisplay:10.37,2013-03-21 23:54:00,
2013-03-21 19:59:00,36.5,11.4,29.89,North,352,4.6,4.6,35,0.00,CLR,,0.00,WeatherDisplay:10.37,2013-03-21 23:59:00,
2013-03-21 20:04:00,36.3,11.2,29.89,ENE,58,3.5,3.5,35,0.00,CLR,,0.00,WeatherDisplay:10.37,2013-03-22 00:04:00,
2013-03-21 20:09:00,36.1,11.7,29.89,NNE,23,3.5,3.5,36,0.00,CLR,,0.00,WeatherDisplay:10.37,2013-03-22 00:09:00,
2013-03-21 20:14:00,36.0,11.6,29.89,NNE,30,4.0,4.0,36,0.00,CLR,,0.00,WeatherDisplay:10.37,2013-03-22 00:14:00,
2013-03-21 20:19:00,35.8,11.4,29.89,NNE,12,4.6,4.6,36,0.00,CLR,,0.00,WeatherDisplay:10.37,2013-03-22 00:19:00,
2013-03-21 20:24:00,35.7,11.3,29.89,NNE,27,6.9,6.9,36,0.00,CLR,,0.00,WeatherDisplay:10.37,2013-03-22 00:24:00,
2013-03-21 20:29:00,35.6,11.2,29.90,NE,50,2.3,2.3,36,0.00,CLR,,0.00,WeatherDisplay:10.37,2013-03-22 00:29:00,
2013-03-21 20:34:00,35.4,11.7,29.90,WSW,242,8.1,8.1,37,0.00,CLR,,0.00,WeatherDisplay:10.37,2013-03-22 00:34:00,
2013-03-21 20:39:00,35.2,11.5,29.90,West,262,2.3,2.3,37,0.00,CLR,,0.00,WeatherDisplay:10.37,2013-03-22 00:39:00,
2013-03-21 20:44:00,35.1,10.8,29.90,WNW,285,6.9,6.9,36,0.00,CLR,,0.00,WeatherDisplay:10.37,2013-03-22 00:44:00,
2013-03-21 20:49:00,35.0,10.7,29.91,NNE,33,4.6,4.6,36,0.00,CLR,,0.00,WeatherDisplay:10.37,2013-03-22 00:49:00,
2013-03-21 20:54:00,34.9,10.6,29.91,NNE,25,4.6,4.6,36,0.00,CLR,,0.00,WeatherDisplay:10.37,2013-03-22 00:54:00,
2013-03-21 20:59:00,34.8,11.1,29.91,NNW,335,3.0,3.0,37,0.00,CLR,,0.00,WeatherDisplay:10.37,2013-03-22 00:59:00,
2013-03-21 21:04:00,34.6,11.0,29.92,NW,317,6.9,6.9,37,0.00,CLR,,0.00,WeatherDisplay:10.37,2013-03-22 01:04:00,
2013-03-21 21:09:00,34.4,10.8,29.92,NW,306,3.5,3.5,37,0.00,CLR,,0.00,WeatherDisplay:10.37,2013-03-22 01:09:00,
2013-03-21 21:14:00,34.2,11.2,29.93,NE,41,2.3,2.3,38,0.00,CLR,,0.00,WeatherDisplay:10.37,2013-03-22 01:14:00,
2013-03-21 21:19:00,34.1,11.1,29.93,NNE,14,3.5,3.5,38,0.00,CLR,,0.00,WeatherDisplay:10.37,2013-03-22 01:19:00,
2013-03-21 21:24:00,33.9,10.9,29.93,NNE,16,2.3,2.3,38,0.00,CLR,,0.00,WeatherDisplay:10.37,2013-03-22 01:24:00,
2013-03-21 21:29:00,33.8,10.8,29.93,NE,34,6.9,6.9,38,0.00,CLR,,0.00,WeatherDisplay:10.37,2013-03-22 01:29:00,
2013-03-21 21:34:00,33.7,10.7,29.93,NNW,342,3.5,3.5,38,0.00,CLR,,0.00,WeatherDisplay:10.37,2013-03-22 01:34:00,
2013-03-21 21:39:00,33.5,11.2,29.93,West,273,7.0,7.0,39,0.00,CLR,,0.00,WeatherDisplay:10.37,2013-03-22 01:39:00,
2013-03-21 21:44:00,33.4,11.1,29.93,NW,313,3.5,3.5,39,0.00,CLR,,0.00,WeatherDisplay:10.37,2013-03-22 01:44:00,
2013-03-21 21:49:00,33.3,11.0,29.94,North,5,3.5,3.5,39,0.00,CLR,,0.00,WeatherDisplay:10.37,2013-03-22 01:49:00,
2013-03-21 21:54:00,33.3,11.0,29.94,NNW,338,4.6,4.6,39,0.00,CLR,,0.00,WeatherDisplay:10.37,2013-03-22 01:54:00,
2013-03-21 21:59:00,33.2,10.9,29.94,North,360,3.5,3.5,39,0.00,CLR,,0.00,WeatherDisplay:10.37,2013-03-22 01:59:00,
2013-03-21 22:04:00,33.1,11.4,29.94,NNE,23,4.6,4.6,40,0.00,CLR,,0.00,WeatherDisplay:10.37,2013-03-22 02:04:00,
2013-03-21 22:09:00,32.9,11.2,29.94,NNW,335,3.5,3.5,40,0.00,CLR,,0.00,WeatherDisplay:10.37,2013-03-22 02:09:00,
2013-03-21 22:14:00,32.8,11.1,29.94,NNE,18,3.5,3.5,40,0.00,CLR,,0.00,WeatherDisplay:10.37,2013-03-22 02:14:00,
2013-03-21 22:19:00,32.7,11.0,29.95,NNE,20,4.6,4.6,40,0.00,CLR,,0.00,WeatherDisplay:10.37,2013-03-22 02:19:00,
2013-03-21 22:24:00,32.6,11.5,29.95,WNW,287,2.3,2.3,41,0.00,CLR,,0.00,WeatherDisplay:10.37,2013-03-22 02:24:00,
2013-03-21 22:29:00,32.4,11.3,29.95,ENE,60,3.5,3.5,41,0.00,CLR,,0.00,WeatherDisplay:10.37,2013-03-22 02:29:00,
2013-03-21 22:34:00,32.3,11.7,29.95,WNW,291,3.5,3.5,42,0.00,CLR,,0.00,WeatherDisplay:10.37,2013-03-22 02:34:00,
2013-03-21 22:39:00,32.3,11.2,29.95,North,11,2.3,2.3,41,0.00,CLR,,0.00,WeatherDisplay:10.37,2013-03-22 02:39:00,
2013-03-21 22:44:00,32.2,11.1,29.95,North,11,3.5,3.5,41,0.00,CLR,,0.00,WeatherDisplay:10.37,2013-03-22 02:44:00,
2013-03-21 22:49:00,32.1,11.6,29.95,ENE,65,0.0,0.0,42,0.00,CLR,,0.00,WeatherDisplay:10.37,2013-03-22 02:49:00,
2013-03-21 22:54:00,31.9,11.4,29.95,NE,43,1.1,1.1,42,0.00,CLR,,0.00,WeatherDisplay:10.37,2013-03-22 02:54:00,
2013-03-21 22:59:00,31.8,11.3,29.95,WNW,284,3.5,3.5,42,0.00,CLR,,0.00,WeatherDisplay:10.37,2013-03-22 02:59:00,
2013-03-21 23:04:00,31.7,11.7,29.95,NNE,30,1.1,1.1,43,0.00,CLR,,0.00,WeatherDisplay:10.37,2013-03-22 03:04:00,
2013-03-21 23:09:00,31.6,11.6,29.95,NNE,31,3.5,3.5,43,0.00,CLR,,0.00,WeatherDisplay:10.37,2013-03-22 03:09:00,
2013-03-21 23:14:00,31.4,11.5,29.95,NNW,332,3.5,3.5,43,0.00,CLR,,0.00,WeatherDisplay:10.37,2013-03-22 03:14:00,
2013-03-21 23:19:00,31.4,11.5,29.95,SW,233,3.5,3.5,43,0.00,CLR,,0.00,WeatherDisplay:10.37,2013-03-22 03:19:00,
2013-03-21 23:24:00,31.4,12.0,29.95,NNE,29,3.5,3.5,44,0.00,CLR,,0.00,WeatherDisplay:10.37,2013-03-22 03:24:00,
2013-03-21 23:29:00,31.3,11.9,29.95,ENE,64,3.5,3.5,44,0.00,CLR,,0.00,WeatherDisplay:10.37,2013-03-22 03:29:00,
2013-03-21 23:34:00,31.2,11.8,29.95,NNW,345,3.5,3.5,44,0.00,CLR,,0.00,WeatherDisplay:10.37,2013-03-22 03:34:00,
2013-03-21 23:39:00,31.1,11.7,29.96,NNE,19,1.1,1.1,44,0.00,CLR,,0.00,WeatherDisplay:10.37,2013-03-22 03:39:00,
2013-03-21 23:44:00,31.0,12.1,29.96,North,359,3.5,3.5,45,0.00,CLR,,0.00,WeatherDisplay:10.37,2013-03-22 03:44:00,
2013-03-21 23:49:00,30.9,12.0,29.95,NW,323,2.3,2.3,45,0.00,CLR,,0.00,WeatherDisplay:10.37,2013-03-22 03:49:00,
2013-03-21 23:54:00,30.8,12.4,29.95,NE,37,4.6,4.6,46,0.00,CLR,,0.00,WeatherDisplay:10.37,2013-03-22 03:54:00,
2013-03-21 23:59:00,30.7,12.3,29.96,NE,43,3.5,3.5,46,0.00,CLR,,0.00,WeatherDisplay:10.37,2013-03-22 03:59:00,